Flag for Switzerland Weather past 2 weeks in Pratteln, Basel-Land, Switzerland

Now
68 °F

Light rain. Mostly cloudy.


Feels Like: 68 °F
Forecast: 55 / 73 °F
Wind: 5 mph from Northwest

Location: Bale-Mulhouse

Current Time: Jul 30, 2014 at 4:17:07 PM

Latest Report: Jul 30, 2014 at 3:30 PM


Visibility: N/A

Pressure: 29.89 "Hg

Humidity: 88%

Dew point: 64 °F

Location of PrattelnLocation

Historic Weather in Pratteln — Graph

°F

Pratteln temperature yesterday

Maximum temperature yesterday: 68 °F (at 4:30 PM)
Minimum temperature yesterday: 59 °F (at 4:30 AM)
Average temperature yesterday: 63 °F

Past Weeks' High & Low Weather Summary

 TemperatureHumidityPressure
High93 °F (Jul 18, 4:35 PM)100% (Jul 16, 1:30 AM)30.18 "Hg (Jul 16, 1:30 AM)
Low54 °F (Jul 16, 3:30 AM)20% (Jul 18, 5:00 PM)29.80 "Hg (Jul 29, 4:00 PM)
Average69 °F78%29.97 "Hg
* Reported Jul 15 3:00 PM — Jul 30 3:00 PM, Pratteln, Weather by CustomWeather, © 2014

Note: Actual official high and low records may vary slightly from our data, if they occured in-between our weather recording intervals... More about our weather records

Advertising

Pratteln weather history for previous 24 hours

 ConditionsComfort  
Time TempWeatherWind HumidityBarometerVisibility
3:00 PM
Jul 30
68 °FLight rain. Mostly cloudy.7 mph88%29.89 "Hg6 mi
2:00 PM68 °FLight rain. Mostly cloudy.7 mph88%29.89 "Hg6 mi
1:30 PM68 °FLight rain. Mostly cloudy.3 mph83%29.89 "HgN/A
1:00 PM68 °FMostly cloudy.2 mph83%29.89 "HgN/A
12:30 PM68 °FMostly cloudy.2 mph78%29.86 "HgN/A
12:00 PM68 °FMostly cloudy.5 mph78%29.86 "HgN/A
11:30 AM66 °FMostly cloudy.5 mph88%29.86 "HgN/A
11:00 AM64 °FCloudy.5 mph88%29.86 "HgN/A
10:30 AM64 °FMostly cloudy.5 mph88%29.86 "HgN/A
10:00 AM63 °FCloudy.2 mph88%29.86 "HgN/A
9:30 AM63 °FCloudy.1 mph88%29.86 "Hg6 mi
9:00 AM63 °FLight rain. Cloudy.2 mph88%29.86 "Hg4 mi
8:30 AM61 °FLight rain. Mostly cloudy.2 mph94%29.83 "Hg4 mi
8:00 AM63 °FLight rain. Mostly cloudy.3 mph88%29.83 "Hg6 mi
7:30 AM63 °FMostly cloudy.2 mph88%29.83 "HgN/A
7:00 AM61 °FMostly cloudy.2 mph94%29.83 "HgN/A
6:30 AM61 °FPassing clouds.3 mph94%29.83 "HgN/A
6:00 AM61 °FOvercast.3 mph94%29.83 "HgN/A
5:30 AM61 °FOvercast.1 mph94%29.83 "HgN/A
5:00 AM61 °FOvercast.3 mph94%29.83 "HgN/A
4:30 AM61 °FOvercast.2 mph94%29.83 "HgN/A
4:00 AM61 °FLight rain. Partly cloudy.3 mph94%29.83 "HgN/A
3:30 AM61 °FLight rain. Partly cloudy.2 mph94%29.83 "HgN/A
3:00 AM63 °FLight rain. Mostly cloudy.7 mph88%29.83 "HgN/A
2:30 AM63 °FLight rain. Partly cloudy.6 mph88%29.83 "HgN/A
2:00 AM63 °FDrizzle. Overcast.3 mph88%29.83 "HgN/A
1:30 AM63 °FLight rain. Overcast.5 mph88%29.83 "HgN/A
1:00 AM63 °FPassing clouds.5 mph88%29.83 "HgN/A
12:30 AM63 °FPassing clouds.7 mph88%29.83 "HgN/A
12:00 AM63 °FPartly cloudy.5 mph88%29.86 "HgN/A
11:30 PM
Jul 29
63 °FPassing clouds.6 mph88%29.86 "HgN/A
11:00 PM63 °FPassing clouds.5 mph88%29.86 "HgN/A
10:30 PM64 °FPassing clouds.7 mph83%29.86 "HgN/A
10:00 PM64 °FBroken clouds.7 mph83%29.86 "HgN/A
9:30 PM64 °FPartly sunny.6 mph83%29.83 "HgN/A
9:00 PM64 °FBroken clouds.7 mph83%29.83 "HgN/A
8:30 PM66 °FBroken clouds.7 mph78%29.83 "HgN/A
8:00 PM66 °FBroken clouds.6 mph83%29.83 "HgN/A
7:30 PM68 °FBroken clouds.6 mph78%29.83 "HgN/A
7:00 PM68 °FBroken clouds.5 mph78%29.83 "HgN/A
6:30 PM68 °FBroken clouds.3 mph78%29.83 "HgN/A
6:00 PM68 °FPartly sunny.5 mph73%29.83 "HgN/A
5:30 PM68 °FPartly sunny.5 mph73%29.80 "HgN/A
5:00 PM68 °FPartly sunny.5 mph78%29.80 "HgN/A
4:30 PM68 °FPartly sunny.5 mph73%29.80 "HgN/A
4:00 PM66 °FPartly sunny.5 mph78%29.80 "HgN/A
Weather by CustomWeather, © 2014

See weather overviewHow to use our weather pages